Regional Weather Roundup
Issued by NWS

Home | Current Version | Previous Version | Text Only | Print | Product List | Glossary Off
Versions: 1 2 3 4 5 6 7 8 9 10 11 12 13 14 15 16 17 18 19 20 21 22 23 24 25 26 27 28 29 30 31 32 33 34 35 36 37 38 39 40 41 42 43 44 45 46 47 48 49 50

000
ASUS43 KLSX 050659
RWRMO

WEATHER SUMMARY FOR MISSOURI
NATIONAL WEATHER SERVICE SPRINGFIELD MO
200 AM CDT TUE MAY 05 2015

NOTE: "FAIR" INDICATES FEW OR NO CLOUDS BELOW 12,000 FEET WITH NO
       SIGNIFICANT WEATHER AND/OR OBSTRUCTIONS TO VISIBILITY.
       CURRENT SKY AND/OR WEATHER CONDITIONS ARE NOT AVAILABLE FOR
       CHILLICOTHE AND FARMINGTON.

MOZ001>031-035>038-043-044-053-054-050800-
...NORTHERN AND WESTERN MISSOURI...

CITY           SKY/WX    TMP DP  RH WIND       PRES   REMARKS
KANSAS CTY INT CLOUDY    60  59  96 SW5       30.08F
KANSAS C DTWN  CLOUDY    64  61  90 S3        30.08F
LEE`S SUMMIT   CLOUDY    61  60  97 SW3       30.10F FOG
ST JOSEPH      CLOUDY    62  60  93 CALM      30.06F
CHILLICOTHE      N/A     62  60  93 SE3       30.09F
KIRKSVILLE     CLOUDY    63  62  97 SE6       30.11R

$$
MOZ066>068-077>081-088>096-101>105-050800-
...SOUTHWEST MISSOURI...

CITY           SKY/WX    TMP DP  RH WIND       PRES   REMARKS
SPRINGFIELD    CLEAR     61  53  75 SE8       30.14F
JOPLIN         CLEAR     64  54  69 SE6       30.12S

$$
MOZ032>034-039>042-045>050-055>058-069>072-050800-
...CENTRAL MISSOURI...

CITY           SKY/WX    TMP DP  RH WIND       PRES   REMARKS
COLUMBIA       CLOUDY    68  56  65 S9        30.11S
JEFFERSON CITY CLOUDY    70  55  59 S9        30.11S
ROLLA          MOCLDY    65  55  70 S10       30.14S
SEDALIA        CLOUDY    69  61  75 NW6       30.12S
OSAGE BEACH    MOCLDY    64  54  68 S6        30.13F

$$
MOZ051-052-059>065-050800-
...EAST CENTRAL MISSOURI...

CITY           SKY/WX    TMP DP  RH WIND       PRES   REMARKS
ST LOUIS INTL  MOCLDY    73  54  51 SW8       30.14R
SPIRIT OF STL  CLOUDY    71  54  54 SW7       30.13R
ST CHARLES     MOCLDY    68  53  58 SW7       30.12S

$$
MOZ072>076-082>087-097>100-106>115-050800-
...SOUTH CENTRAL AND SOUTHEAST MISSOURI...

CITY           SKY/WX    TMP DP  RH WIND       PRES   REMARKS
CAPE GIRARDEAU CLEAR     62  52  69 S8        30.17F
FARMINGTON     MOCLDY    61  54  77 S5        30.21S
POPLAR BLUFF   CLEAR     59  53  80 CALM      30.16F
WEST PLAINS    CLEAR     65  53  65 S3        30.18F

$$


USA.gov is the U.S. government's official web portal to all federal, state and local government web resources and services.